Glenwood, MN

3:32 AM CST on February 11, 2016 (GMT -0600)
Glenwood Municipal

Weather History for KGHW - July, 2013

Change the Weather History Date:

Sunday, July 14, 2013

  Actual Average Record
Temperature  
Mean Temperature 68 °F -  
Max Temperature 71 °F 83 °F 96 °F (1974)
Min Temperature 66 °F 58 °F 46 °F (1967)
Cooling Degree Days 4    
Growing Degree Days 18 (Base 50)    
Moisture  
Dew Point 65 °F    
Average Humidity 88    
Maximum Humidity 94    
Minimum Humidity 73    
Precipitation  
Precipitation 0.00 in - - ()
Sea Level Pressure  
Sea Level Pressure 30.12 in    
Wind  
Wind Speed 6 mph (ESE)    
Max Wind Speed 9 mph    
Max Gust Speed -    
Visibility 8 miles    
Events      
Averages and records for this station are not official NWS values.
T = Trace of Precipitation, MM = Missing Value Source: NWS Daily Summary

Daily Weather History Graph

Daily Weather History Graph

Search for Another Location

Airport or City:

Trip Planner

Search our weather history database for the weather conditions in past years. The results will help you decide how hot, cold, wet, or windy it might be!

Date:

Astronomy

Jul. 14, 2013 Rise Set
Actual Time 5:45 AM CDT 9:07 PM CDT
Civil Twilight 5:09 AM CDT 9:44 PM CDT
Nautical Twilight 4:21 AM CDT 10:32 PM CDT
Astronomical Twilight 3:20 AM CDT 11:32 PM CDT
Moon 12:26 PM CDT (7/14) 11:56 PM CDT (7/14)
Length of Visible Light 16h 35m
Length of Day
15h 22m
Waxing Crescent, 35% of the Moon is Illuminated
Jul 14
Waxing Crescent
Jul 15
First Quarter
Jul 22
Full
Jul 29
Last Quarter
Aug 6
New

Hourly Weather History & Observations

Time (CDT) Temp. Dew Point Humidity Pressure Visibility Wind Dir Wind Speed Gust Speed Precip Events Conditions
12:01 AM 71.6 °F 66.2 °F 83% 30.05 in 10.0 mi ESE 8.1 mph - N/A   Clear
12:21 AM 69.8 °F 66.2 °F 88% 30.05 in 10.0 mi ESE 8.1 mph - N/A   Clear
12:41 AM 69.8 °F 66.2 °F 88% 30.06 in 10.0 mi ESE 5.8 mph - N/A   Clear
1:01 AM 69.8 °F 64.4 °F 83% 30.05 in 10.0 mi ESE 6.9 mph - N/A   Clear
1:21 AM 69.8 °F 64.4 °F 83% 30.05 in 10.0 mi ESE 6.9 mph - N/A   Clear
1:41 AM 69.8 °F 64.4 °F 83% 30.05 in 10.0 mi SE 6.9 mph - N/A   Scattered Clouds
2:01 AM 69.8 °F 64.4 °F 83% 30.04 in 10.0 mi SE 8.1 mph - N/A   Scattered Clouds
2:21 AM 69.8 °F 64.4 °F 83% 30.04 in 10.0 mi SE 8.1 mph - N/A   Clear
2:41 AM 69.8 °F 64.4 °F 83% 30.04 in 10.0 mi SE 8.1 mph - N/A   Clear
3:01 AM 68.0 °F 64.4 °F 88% 30.03 in 10.0 mi SE 5.8 mph - N/A   Scattered Clouds
3:21 AM 68.0 °F 64.4 °F 88% 30.03 in 10.0 mi ESE 5.8 mph - N/A   Scattered Clouds
3:41 AM 68.0 °F 64.4 °F 88% 30.03 in 10.0 mi ESE 4.6 mph - N/A   Scattered Clouds
4:08 AM 68.0 °F 64.4 °F 88% 30.03 in 10.0 mi SE 5.8 mph - N/A   Scattered Clouds
4:27 AM 68.0 °F 64.4 °F 88% 30.04 in 10.0 mi SE 4.6 mph - N/A   Mostly Cloudy
4:41 AM 68.0 °F 64.4 °F 88% 30.03 in 10.0 mi SE 5.8 mph - N/A   Mostly Cloudy
5:01 AM 68.0 °F 64.4 °F 88% 30.04 in 10.0 mi SE 4.6 mph - N/A   Mostly Cloudy
5:21 AM 68.0 °F 64.4 °F 88% 30.05 in 10.0 mi SE 4.6 mph - N/A   Scattered Clouds
5:41 AM 68.0 °F 62.6 °F 83% 30.05 in 10.0 mi SE 4.6 mph - N/A   Scattered Clouds
6:01 AM 66.2 °F 62.6 °F 88% 30.06 in 10.0 mi SE 5.8 mph - N/A   Clear
6:33 AM 68.0 °F 62.6 °F 83% 30.06 in 10.0 mi SSE 9.2 mph - N/A   Scattered Clouds
6:57 AM 69.8 °F 60.8 °F 73% 30.06 in 10.0 mi SSE 8.1 mph - N/A   Scattered Clouds
7:12 AM 69.8 °F 60.8 °F 73% 30.06 in 10.0 mi South 9.2 mph - N/A   Scattered Clouds
7:32 AM 69.8 °F 62.6 °F 78% 30.05 in 10.0 mi South 9.2 mph - N/A   Mostly Cloudy
7:44 AM 68.0 °F 60.8 °F 78% 30.05 in 10.0 mi South 9.2 mph - N/A   Overcast
8:11 AM 68.0 °F 62.6 °F 83% 30.08 in 10.0 mi SSE 6.9 mph - N/A   Overcast
8:25 AM 66.2 °F 62.6 °F 88% 30.10 in 10.0 mi SSE 4.6 mph - N/A   Overcast
8:48 AM 66.2 °F 62.6 °F 88% 30.11 in 10.0 mi SSE 2.3 mph - N/A   Overcast
9:12 AM 66.2 °F 62.6 °F 88% 30.11 in 10.0 mi SE 4.6 mph - N/A   Overcast
9:26 AM 66.2 °F 62.6 °F 88% 30.12 in 10.0 mi SE 4.6 mph - N/A   Overcast
9:41 AM 66.2 °F 62.6 °F 88% 30.12 in 10.0 mi SE 5.8 mph - N/A   Overcast
10:01 AM 66.2 °F 62.6 °F 88% 30.12 in 10.0 mi SE 4.6 mph - N/A   Overcast
10:33 AM 66.2 °F 62.6 °F 88% 30.11 in 10.0 mi SE 6.9 mph - N/A   Overcast
10:47 AM 68.0 °F 64.4 °F 88% 30.11 in 10.0 mi SE 5.8 mph - N/A   Mostly Cloudy
11:09 AM 69.8 °F 62.6 °F 78% 30.12 in 10.0 mi SSE 6.9 mph - N/A   Mostly Cloudy
11:28 AM 69.8 °F 62.6 °F 78% 30.13 in 10.0 mi SSE 9.2 mph - N/A   Mostly Cloudy
11:45 AM 68.0 °F 62.6 °F 83% 30.13 in 10.0 mi SSE 5.8 mph - N/A   Overcast
12:01 PM 68.0 °F 64.4 °F 88% 30.13 in 10.0 mi SSE 8.1 mph - N/A   Overcast
12:33 PM 66.2 °F 62.6 °F 88% 30.13 in 7.0 mi ESE 5.8 mph - N/A   Overcast
12:41 PM 66.2 °F 64.4 °F 94% 30.13 in 10.0 mi ESE 5.8 mph - N/A   Overcast
1:01 PM 66.2 °F 64.4 °F 94% 30.15 in 7.0 mi SSE 6.9 mph - N/A   Overcast
1:21 PM 66.2 °F 62.6 °F 88% 30.15 in 10.0 mi SSE 6.9 mph - N/A   Overcast
1:41 PM 66.2 °F 64.4 °F 94% 30.16 in 7.0 mi SE 6.9 mph - N/A   Overcast
2:01 PM 66.2 °F 64.4 °F 94% 30.16 in 7.0 mi SE 6.9 mph - N/A   Overcast
2:21 PM 66.2 °F 64.4 °F 94% 30.16 in 5.0 mi ESE 3.5 mph - N/A   Overcast
2:41 PM 66.2 °F 64.4 °F 94% 30.16 in 5.0 mi ESE 2.3 mph - N/A   Overcast
3:01 PM 68.0 °F 66.2 °F 94% 30.16 in 7.0 mi East 1.2 mph - N/A   Overcast
3:30 PM 68.0 °F 66.2 °F 94% 30.17 in 7.0 mi ENE 2.3 mph - N/A   Overcast
3:45 PM 68.0 °F 66.2 °F 94% 30.17 in 4.0 mi ENE 3.5 mph - N/A   Overcast
4:01 PM 68.0 °F 66.2 °F 94% 30.17 in 5.0 mi ENE 3.5 mph - N/A   Overcast
4:21 PM 69.8 °F 66.2 °F 88% 30.17 in 7.0 mi East 3.5 mph - N/A   Overcast
4:41 PM 69.8 °F 66.2 °F 88% 30.17 in 7.0 mi ESE 2.3 mph - N/A   Overcast
5:01 PM 69.8 °F 66.2 °F 88% 30.17 in 7.0 mi ESE 1.2 mph - N/A   Overcast
5:21 PM 69.8 °F 66.2 °F 88% 30.16 in 7.0 mi Calm Calm - N/A   Overcast
5:41 PM - - N/A% 30.16 in 7.0 mi ENE 1.2 mph - N/A   Overcast
6:01 PM 69.8 °F 66.2 °F 88% 30.17 in 7.0 mi East 3.5 mph - N/A   Overcast
6:21 PM 69.8 °F 66.2 °F 88% 30.17 in 5.0 mi East 5.8 mph - N/A   Mostly Cloudy
6:41 PM 69.8 °F 66.2 °F 88% 30.17 in 3.0 mi ESE 6.9 mph - N/A   Mostly Cloudy
7:01 PM 68.0 °F 66.2 °F 94% 30.18 in 3.0 mi ESE 5.8 mph - N/A   Mostly Cloudy
7:21 PM 68.0 °F 66.2 °F 94% 30.18 in 3.0 mi SSE 3.5 mph - N/A   Overcast
7:41 PM 68.0 °F 66.2 °F 94% 30.18 in 3.0 mi South 3.5 mph - N/A   Overcast
8:01 PM 68.0 °F 66.2 °F 94% 30.18 in 3.0 mi SSE 2.3 mph - N/A   Overcast
8:21 PM 68.0 °F 66.2 °F 94% 30.17 in 3.0 mi Calm Calm - N/A   Overcast
8:41 PM 68.0 °F 66.2 °F 94% 30.17 in 4.0 mi NNE 2.3 mph - N/A   Overcast
9:01 PM 68.0 °F 66.2 °F 94% 30.18 in 4.0 mi North 3.5 mph - N/A   Overcast
9:21 PM 68.0 °F 66.2 °F 94% 30.18 in 5.0 mi North 4.6 mph - N/A   Overcast
9:41 PM 68.0 °F 66.2 °F 94% 30.19 in 4.0 mi NE 2.3 mph - N/A   Mostly Cloudy
10:01 PM 68.0 °F 66.2 °F 94% 30.20 in 3.0 mi ENE 2.3 mph - N/A   Overcast
10:21 PM 68.0 °F 66.2 °F 94% 30.19 in 4.0 mi ENE 6.9 mph - N/A   Overcast
10:41 PM 68.0 °F 66.2 °F 94% 30.19 in 7.0 mi NNE 4.6 mph - N/A   Overcast
11:01 PM 68.0 °F 66.2 °F 94% 30.20 in 7.0 mi NNW 3.5 mph - N/A   Overcast
11:21 PM 68.0 °F 66.2 °F 94% 30.21 in 5.0 mi Calm Calm - N/A   Overcast
11:41 PM 68.0 °F 66.2 °F 94% 30.21 in 4.0 mi ENE 2.3 mph - N/A   Overcast